Regional Weather Roundup
Issued by NWS Sioux Falls, SD

Home | Current Version | Previous Version | Graphics & Text | Print | Product List | Glossary Off
Versions: 1 2 3 4 5 6 7 8 9 10 11 12 13 14 15 16 17 18 19 20 21 22 23 24 25 26 27 28 29 30 31 32 33 34 35 36 37 38 39 40 41 42 43 44 45 46 47 48 49 50

000
ASUS43 KFSD 210002
RWRFSD

WEATHER ROUNDUP FOR SE SOUTH DAKOTA/SW MINNESOTA/NW IOWA
NATIONAL WEATHER SERVICE SIOUX FALLS SD
700 PM CDT SAT SEP 20 2014

NOTE: "FAIR" INDICATES FEW OR NO CLOUDS BELOW 12,000 FEET WITH NO
SIGNIFICANT WEATHER AND OR OBSTRUCTIONS TO VISIBILITY.


SDZ038>040-050-052>070-210100-
SOUTHEAST SOUTH DAKOTA

CITY           SKY/WX    TMP DP  RH WIND       PRES   REMARKS
CHAMBERLAIN    CLEAR     73  40  30 NW15G21   30.03R
6HR MIN TEMP:  73; 6HR MAX TEMP:  82;

HURON          CLEAR     71  40  32 NW17G26   29.98R
6HR MIN TEMP:  70; 6HR MAX TEMP:  85;

MADISON        FAIR      66  46  48 NW17G26   29.97R
MITCHELL       PTCLDY    74  45  35 N13G25    29.98R
6HR MIN TEMP:  74; 6HR MAX TEMP:  85; 6HR PCP: TRACE;

SIOUX FALLS    PTCLDY    73  49  42 NW21G33   29.94R
6HR MIN TEMP:  73; 6HR MAX TEMP:  84;

WINNER         FAIR      75  39  27 NW15G26   30.07R
YANKTON        CLEAR     77  48  36 NW17G24   29.94R
$$

MNZ071-072-080-081-089-090-097-098-210100-
SOUTHWEST MINNESOTA

CITY           SKY/WX    TMP DP  RH WIND       PRES   REMARKS
FAIRMONT       CLOUDY    63  54  72 N13G20    29.86R
JACKSON        PTCLDY    64  52  63 N16G24    29.90R
LUVERNE        CLEAR     70  55  60 N13G21    29.92R
MARSHALL       PTCLDY    63  54  72 N12G18    29.91R
6HR MIN TEMP:  63; 6HR MAX TEMP:  82;

MONTEVIDEO     CLEAR     64  57  77 N14G20    29.91R
PIPESTONE      PTCLDY    70  52  52 N17G23    29.94R
REDWOOD FALLS  PTCLDY    62  57  83 NW9       29.88R
TRACY          PTCLDY    63  55  75 NW12G17   29.92R
WINDOM         PTCLDY    63  55  77 NW24      29.90R
WORTHINGTON    CLEAR     66  48  52 N24G33    29.92R
$$

IAZ001>003-012>014-020>022-031-032-NEZ013-014-SDZ071-210100-
NORTHWEST IOWA

CITY           SKY/WX    TMP DP  RH WIND       PRES   REMARKS
CHEROKEE       PTCLDY    76  56  49 W12G17    29.87S
DENISON        CLEAR     77  57  50 W7        29.88F
ESTHERVILLE    MOCLDY    67  54  63 N23G39    29.86R
LE MARS        MOCLDY    77  55  47 W6G13     29.89S
ORANGE CITY    CLEAR     79  46  31 NW22G29   29.89R
SHELDON        CLEAR     77  52  41 NW14G25   29.87R
SIOUX CITY     PTCLDY    80  56  43 NW10      29.89S
6HR MIN TEMP:  79; 6HR MAX TEMP:  85;

SPENCER        MOCLDY    78  52  40 W20       29.85R
6HR MIN TEMP:  78; 6HR MAX TEMP:  83;

$$

ABBREVIATIONS USED IN REMARKS
   TC - TEMPERATURE IN CELSIUS
  WCI - WIND CHILL INDEX
   HX - HEAT INDEX
  VSB - VISIBILITY




USA.gov is the U.S. government's official web portal to all federal, state and local government web resources and services.